Appleton, WI

9:30 AM CST on December 15, 2019 (GMT -0600)
Outagamie County Regional

Weather History for KATW - October, 2019

Change the Weather History Date:

Saturday, October 26, 2019

  Actual Average Record
Temperature  
Mean Temperature 39 °F -  
Max Temperature 48 °F 55 °F 80 °F (2005)
Min Temperature 30 °F 38 °F 22 °F (1962)
Degree Days  
Heating Degree Days 26    
Moisture  
Dew Point 27 °F    
Average Humidity 65    
Maximum Humidity 81    
Minimum Humidity 43    
Precipitation  
Precipitation 0.01 in - - ()
Sea Level Pressure  
Sea Level Pressure 29.97 in    
Wind  
Wind Speed 5 mph ()    
Max Wind Speed 14 mph    
Max Gust Speed -    
Visibility 10.0 miles    
Events Rain    
Averages and records for this station are not official NWS values.
T = Trace of Precipitation, MM = Missing Value Source: Averaged Metar Reports

Daily Weather History Graph

Daily Weather History Graph

Search for Another Location

Airport or City:

Astronomy

Oct. 26, 2019 Rise Set
Actual Time 7:22 AM CDT 5:52 PM CDT
Civil Twilight 6:53 AM CDT 6:22 PM CDT
Nautical Twilight 6:19 AM CDT 6:56 PM CDT
Astronomical Twilight 5:45 AM CDT 7:29 PM CDT
Moon 5:10 AM CDT (10/26) 5:33 PM CDT (10/26)
Length of Visible Light 11h 29m
Length of Day
10h 29m
Waning Crescent, 3% of the Moon is Illuminated
Oct 26
Waning Crescent
Oct 27
New
Nov 4
First Quarter
Nov 12
Full
Nov 19
Last Quarter

Hourly Weather History & Observations

Time (CDT) Temp. Windchill Dew Point Humidity Pressure Visibility Wind Dir Wind Speed Gust Speed Precip Events Conditions
12:15 AM 35.6 °F 31.7 °F 21.2 °F 56% 30.14 in 10.0 mi SSW 4.6 mph - N/A   Clear
12:35 AM 35.6 °F 31.7 °F 21.2 °F 56% 30.14 in 10.0 mi SSW 4.6 mph - N/A   Clear
12:55 AM 33.8 °F - 21.2 °F 60% 30.13 in 10.0 mi Calm Calm - N/A   Clear
1:15 AM 32.0 °F 27.5 °F 21.2 °F 64% 30.13 in 10.0 mi SSE 4.6 mph - N/A   Clear
1:35 AM 32.0 °F 27.5 °F 23.0 °F 69% 30.13 in 10.0 mi South 4.6 mph - N/A   Clear
1:55 AM 32.0 °F 28.7 °F 23.0 °F 69% 30.12 in 10.0 mi South 3.5 mph - N/A   Clear
2:15 AM 32.0 °F 28.7 °F 21.2 °F 64% 30.12 in 10.0 mi South 3.5 mph - N/A   Clear
2:35 AM 32.0 °F 28.7 °F 21.2 °F 64% 30.12 in 10.0 mi South 3.5 mph - N/A   Clear
2:55 AM 32.0 °F 27.5 °F 21.2 °F 64% 30.12 in 10.0 mi South 4.6 mph - N/A   Clear
3:15 AM 32.0 °F 28.7 °F 21.2 °F 64% 30.12 in 10.0 mi South 3.5 mph - N/A   Clear
3:55 AM 33.8 °F 28.6 °F 23.0 °F 65% 30.11 in 10.0 mi SSW 5.8 mph - N/A   Clear
4:15 AM 32.0 °F 28.7 °F 23.0 °F 69% 30.11 in 10.0 mi South 3.5 mph - N/A   Clear
4:35 AM 32.0 °F 26.4 °F 23.0 °F 69% 30.12 in 10.0 mi SSE 5.8 mph - N/A   Clear
4:55 AM 30.2 °F 25.4 °F 23.0 °F 75% 30.11 in 10.0 mi SSE 4.6 mph - N/A   Clear
5:15 AM 32.0 °F - 23.0 °F 69% 30.10 in 10.0 mi Calm Calm - N/A   Clear
5:20 AM 32.0 °F 27.5 °F 23.0 °F 69% 30.10 in 10.0 mi Variable 4.6 mph - N/A   Clear
5:45 AM 30.2 °F 25.4 °F 23.0 °F 75% 30.10 in 10.0 mi Variable 4.6 mph - N/A   Clear
6:45 AM 30.2 °F 25.4 °F 23.0 °F 75% 30.08 in 10.0 mi Variable 4.6 mph - N/A   Clear
7:45 AM 32.0 °F 26.4 °F 23.0 °F 69% 30.09 in 10.0 mi Variable 5.8 mph - N/A   Scattered Clouds
8:45 AM 32.0 °F 26.4 °F 24.8 °F 75% 30.07 in 10.0 mi Variable 5.8 mph - N/A   Scattered Clouds
9:45 AM 37.4 °F 33.8 °F 30.2 °F 75% 30.04 in 10.0 mi Variable 4.6 mph - N/A   Scattered Clouds
10:45 AM 44.6 °F 39.2 °F 30.2 °F 57% 30.01 in 10.0 mi SSE 10.4 mph - N/A   Scattered Clouds
11:45 AM 46.4 °F 40.4 °F 24.8 °F 43% 29.99 in 10.0 mi SE 13.8 mph - N/A   Scattered Clouds
12:45 PM 46.4 °F 40.7 °F 28.4 °F 50% 29.97 in 10.0 mi SSE 12.7 mph - N/A   Mostly Cloudy
1:45 PM 48.2 °F - 32.0 °F 54% 29.93 in 10.0 mi SSE 12.7 mph - N/A   Mostly Cloudy
2:45 PM 46.4 °F 41.5 °F 30.2 °F 53% 29.91 in 10.0 mi SE 10.4 mph - N/A   Mostly Cloudy
3:45 PM 46.4 °F 42.4 °F 28.4 °F 50% 29.86 in 10.0 mi ESE 8.1 mph - N/A   Mostly Cloudy
4:45 PM 44.6 °F 40.7 °F 28.4 °F 53% 29.86 in 10.0 mi East 6.9 mph - N/A   Mostly Cloudy
5:45 PM 44.6 °F 40.7 °F 32.0 °F 61% 29.82 in 10.0 mi East 6.9 mph - N/A   Mostly Cloudy
6:45 PM 44.6 °F 41.4 °F 33.8 °F 66% 29.80 in 10.0 mi East 5.8 mph - N/A   Mostly Cloudy
7:45 PM 42.8 °F 39.3 °F 33.8 °F 70% 29.78 in 10.0 mi NE 5.8 mph - N/A   Mostly Cloudy
9:00 PM 42.8 °F 37.5 °F 32.0 °F 66% 29.70 in 10.0 mi NE 9.2 mph - N/A   Mostly Cloudy
9:45 PM 42.8 °F 38.0 °F 30.2 °F 61% 29.69 in 10.0 mi NE 8.1 mph - N/A   Mostly Cloudy
10:45 PM 42.8 °F 38.0 °F 33.8 °F 70% 29.65 in 10.0 mi NNE 8.1 mph - N/A Rain Light Rain
10:55 PM 41.0 °F 36.4 °F 33.8 °F 76% 29.66 in 10.0 mi North 6.9 mph - N/A Rain Rain
11:15 PM 41.0 °F 35.2 °F 33.8 °F 76% 29.66 in 10.0 mi North 9.2 mph - N/A Rain Light Rain
11:35 PM 41.0 °F 34.3 °F 33.8 °F 76% 29.65 in 10.0 mi North 11.5 mph - N/A Rain Light Rain
11:55 PM 41.0 °F 34.7 °F 35.6 °F 81% 29.63 in 10.0 mi North 10.4 mph - 0.01 in Rain Light Rain